This is the latest recevied weather packets stored in our database for station/object W5ADC. If no packets are shown the sender has not sent any weather packets the latest 10 day(s).
| Time | Temp. | Humidity | Pressure | Rain* | Wind** | Luminosity | Snow |
|---|---|---|---|---|---|---|---|
| 1788568237 | 34.44° C | 48% | 1008 hPa | 0 mm | - | 14 W/m² | - |
| 1788567932 | 34.44° C | 48% | 1007.9 hPa | 0 mm | - | 17 W/m² | - |
| 1788567632 | 34.44° C | 48% | 1007.9 hPa | 0 mm | - | 21 W/m² | - |
| 1788567327 | 34.44° C | 48% | 1007.8 hPa | 0 mm | - | 25 W/m² | - |
| 1788567021 | 34.44° C | 48% | 1007.6 hPa | 0 mm | - | 29 W/m² | - |
| 1788566716 | 34.44° C | 48% | 1007.9 hPa | 0 mm | - | 34 W/m² | - |
| 1788566413 | 34.44° C | 48% | 1008 hPa | 0 mm | - | 38 W/m² | - |
| 1788566107 | 34.44° C | 48% | 1007.9 hPa | 0 mm | - | 39 W/m² | - |
| 1788565806 | 35° C | 48% | 1007.8 hPa | 0 mm | - | 41 W/m² | - |
| 1788565501 | 35° C | 48% | 1007.8 hPa | 0 mm | - | 55 W/m² | - |
| 1788565197 | 35° C | 47% | 1007.8 hPa | 0 mm | - | 60 W/m² | - |
| 1788564892 | 35° C | 48% | 1007.8 hPa | 0 mm | - | 51 W/m² | - |
| 1788564588 | 35° C | 47% | 1007.9 hPa | 0 mm | - | 55 W/m² | - |
| 1788564284 | 35° C | 48% | 1007.8 hPa | 0 mm | - | 79 W/m² | - |
| 1788563981 | 35° C | 48% | 1007.6 hPa | 0 mm | - | 54 W/m² | - |
| 1788563676 | 35.56° C | 47% | 1007.6 hPa | 0 mm | - | 110 W/m² | - |
| 1788563371 | 35.56° C | 47% | 1007.8 hPa | 0 mm | - | 120 W/m² | - |
| 1788563070 | 35.56° C | 47% | 1007.9 hPa | 0 mm | - | 142 W/m² | - |
| 1788562765 | 35.56° C | 48% | 1007.7 hPa | 0 mm | - | 157 W/m² | - |
| 1788562463 | 35.56° C | 47% | 1007.6 hPa | 0 mm | - | 180 W/m² | - |
| 1788562163 | 36.11° C | 47% | 1007.8 hPa | 0 mm | - | 208 W/m² | - |
| 1788561859 | 36.11° C | 47% | 1007.8 hPa | 0 mm | - | 220 W/m² | - |
| 1788561558 | 36.11° C | 47% | 1007.8 hPa | 0 mm | - | 239 W/m² | - |
| 1788561258 | 36.11° C | 46% | 1007.8 hPa | 0 mm | - | 252 W/m² | - |
| 1788560954 | 36.11° C | 47% | 1007.8 hPa | 0 mm | - | 273 W/m² | - |
* Rain latest hour (hover to see other rain measurements)
** Current wind speed in m/s (hover to see current wind gust speed)